Theta_e
289 289 289 288 288 287 287 288 287 288 287 287 286 285 285 285 284 284 284 283 283 283 282 282 281 281 281 281 280 280 280 280 280 280 280 279 279 280 280 279 279 279 279 279 280 280 280 279 279 280 280 279 279 280 280 280 280 280 281 281 280 280 280 278 277 277 279 282 282 282 283 284 283 284 283 284 284 285 287 286 287 286 286 286 287
288 288 288 288 287 287 287 287 287 287 286 286 285 284 284 283 283 283 282 282 282 281 281 281 280 280 280 280 280 279 279 279 279 279 278 278 278 279 279 278 278 278 278 278 278 279 279 278 278 278 279 278 278 278 279 278 279 279 278 279 278 278 279 278 277 276 275 279 279 282 281 283 281 283 282 282 282 284 283 284 285 286 286 286 286
288 288 287 287 287 287 287 286 286 286 285 284 283 283 282 282 282 281 281 281 281 280 280 279 279 279 279 279 279 278 278 278 278 278 277 277 276 277 277 277 277 277 277 277 277 278 277 277 277 278 278 277 277 277 278 277 277 277 277 277 277 277 278 278 277 275 276 276 279 278 279 280 280 280 281 282 282 283 282 282 283 284 285 286 286
288 287 287 287 287 286 286 286 285 284 284 283 282 282 281 281 281 280 280 280 279 279 279 278 278 278 278 278 277 277 277 277 277 277 277 276 276 276 276 277 277 277 277 277 277 277 276 276 276 276 276 276 276 276 277 277 276 276 276 276 276 276 277 277 277 276 275 274 276 276 277 277 278 279 280 281 280 280 281 282 282 282 283 284 284
287 287 287 286 286 285 285 284 284 284 283 282 281 280 280 279 279 279 279 278 278 278 278 278 277 277 277 276 276 276 276 276 276 276 276 276 275 276 276 277 277 277 277 277 277 276 276 275 276 276 276 275 275 275 275 275 275 275 275 275 275 276 276 276 275 276 275 274 274 276 276 276 277 278 278 278 278 279 279 280 281 281 282 283 284
287 286 286 285 285 284 284 284 284 283 282 281 280 279 279 278 278 278 277 277 277 277 276 276 276 275 276 275 275 275 275 275 275 275 275 275 275 276 276 276 276 276 276 276 276 276 275 275 275 275 275 274 274 274 274 274 274 274 274 274 274 274 274 274 274 274 273 273 273 272 274 274 274 275 277 277 276 276 277 279 280 281 281 281 281
286 286 285 284 284 284 284 284 283 282 281 280 279 278 278 277 277 277 277 276 276 276 275 275 275 275 275 275 274 274 274 274 274 274 274 275 276 276 276 276 276 276 276 276 276 276 276 275 275 275 275 275 274 274 273 273 273 273 273 273 273 273 273 273 273 272 272 272 272 273 272 274 274 273 276 277 277 276 275 276 276 278 278 278 278
285 285 284 284 284 284 284 284 283 282 280 279 278 277 277 276 276 276 275 275 275 274 274 274 274 274 274 274 274 274 274 274 274 274 274 275 275 275 275 275 275 275 275 276 276 276 275 275 275 275 275 275 274 273 273 272 273 272 273 273 273 272 272 272 272 271 271 271 271 271 272 272 273 274 275 275 274 274 275 274 272 273 275 277 278
284 284 284 284 284 284 283 282 281 280 278 278 277 276 276 275 275 275 275 274 274 274 274 273 273 273 274 273 273 273 273 273 273 272 273 274 275 274 274 275 274 274 274 275 275 275 275 275 275 275 275 275 275 275 275 275 273 272 273 273 272 272 271 271 271 270 270 270 270 271 271 271 271 271 271 272 271 272 274 274 273 274 275 275 275
283 283 283 284 284 283 281 280 279 278 277 277 276 275 275 274 274 274 273 273 273 273 273 273 273 273 273 273 273 273 273 273 272 272 274 275 274 275 274 274 274 274 274 274 274 275 275 275 275 275 275 275 275 275 275 275 276 275 273 273 272 271 271 270 270 270 270 269 269 270 269 269 270 271 271 272 273 273 273 273 272 273 274 273 275
283 284 284 284 283 282 280 279 278 277 277 276 275 275 274 274 273 273 273 272 272 271 272 272 272 272 272 272 272 272 272 272 272 273 275 276 275 274 274 274 274 274 274 273 273 274 274 274 273 274 274 274 273 274 275 275 275 275 276 276 275 273 271 270 270 270 270 269 270 270 270 270 271 272 272 272 273 273 273 273 273 273 272 271 270
283 284 284 283 281 280 280 278 278 277 276 275 274 274 273 272 272 272 271 271 271 271 271 272 272 272 271 271 271 272 272 273 273 274 274 275 276 275 274 274 274 274 274 273 273 273 273 272 272 272 272 272 272 272 273 274 275 275 276 276 276 276 276 273 271 271 271 270 270 270 271 270 271 272 272 272 272 273 273 273 273 272 272 271 272
284 284 283 282 281 280 279 278 277 275 275 274 273 272 271 271 271 271 270 271 271 270 271 271 270 271 270 270 270 271 271 272 273 273 274 275 275 275 274 274 273 273 273 273 273 272 272 271 271 272 272 273 273 272 272 272 274 275 275 275 275 275 275 276 277 274 274 272 271 271 272 272 271 272 273 273 274 272 273 273 273 273 273 272 273
285 284 282 281 280 279 278 277 276 275 274 272 271 271 270 270 271 271 270 270 270 270 270 269 270 269 269 269 269 270 270 271 272 273 274 274 275 275 274 273 273 273 273 272 272 271 271 271 270 270 271 271 272 272 272 272 272 272 272 272 272 273 275 276 277 277 276 274 273 272 273 274 273 273 275 275 274 273 273 272 273 273 273 273 275
284 282 281 280 279 278 277 276 275 274 272 271 271 270 270 270 270 270 270 270 270 269 269 268 269 268 268 268 268 268 269 271 272 273 273 274 275 275 273 273 272 272 272 272 272 271 271 271 271 270 271 271 271 272 272 272 272 272 272 272 272 273 273 274 274 274 274 274 274 274 274 275 275 275 276 276 275 275 275 275 275 275 275 276 276
283 282 280 280 278 278 276 275 274 273 271 271 270 270 270 270 269 270 270 270 270 269 269 268 267 267 267 266 266 266 268 271 272 272 273 273 274 273 272 271 271 271 271 271 271 271 271 271 271 271 271 271 273 275 275 274 273 273 272 273 273 274 274 276 278 279 277 276 276 276 276 276 278 278 278 278 277 278 278 277 277 276 274 273 271
282 281 280 279 278 277 276 275 274 272 271 270 270 270 270 269 269 270 268 269 268 268 267 267 267 266 266 265 265 265 266 268 270 271 272 273 273 271 271 270 270 270 270 271 271 272 272 272 272 271 272 272 274 276 277 277 274 273 273 273 274 274 274 276 278 280 280 280 280 281 281 281 281 281 281 281 279 279 277 274 273 274 272 270 271
282 281 280 279 277 277 276 275 273 272 271 270 270 270 270 270 269 269 268 268 268 267 267 266 266 266 265 264 265 264 265 267 269 271 272 272 272 271 271 270 269 270 270 271 271 272 272 273 273 272 272 273 276 277 278 277 275 274 274 273 273 273 274 276 276 277 279 279 279 280 280 280 280 281 281 281 280 279 275 272 274 274 271 271 269
282 281 280 279 277 276 276 274 273 272 271 271 270 270 270 269 269 267 267 268 267 267 266 265 265 265 265 264 265 265 264 265 268 270 271 272 272 271 270 270 269 269 270 270 271 272 272 273 274 275 275 275 278 278 279 277 275 275 275 274 273 273 274 275 275 275 275 275 276 276 276 277 277 276 277 279 280 279 277 275 275 273 271 271 271
283 281 280 278 277 275 275 273 273 271 271 270 269 269 269 268 267 266 266 266 266 266 265 265 264 264 264 264 263 264 264 264 266 269 270 271 272 271 271 270 269 269 270 270 270 272 272 273 274 276 277 278 278 278 278 278 276 275 275 273 272 271 274 274 275 275 274 273 273 273 273 274 274 274 275 275 276 276 276 275 275 274 272 272 272
282 280 280 277 276 274 273 272 271 271 270 269 268 267 268 267 266 265 265 266 265 265 264 263 263 263 263 264 264 264 264 264 265 269 270 271 272 272 271 270 270 270 270 271 271 271 272 272 273 276 277 277 277 277 278 278 277 275 273 272 272 273 275 273 273 274 271 271 271 271 271 272 272 273 273 274 274 274 275 275 275 274 273 272 271
281 280 278 277 275 273 272 271 270 269 268 267 266 265 266 266 265 264 265 265 262 261 261 262 262 263 264 264 264 263 265 266 265 267 270 271 272 273 271 271 272 271 271 271 272 272 272 273 273 274 275 276 277 277 277 277 277 273 272 275 276 276 273 272 270 270 269 269 269 269 269 270 270 271 272 272 273 273 273 273 274 274 274 273 272
280 279 277 275 273 271 270 268 267 266 265 265 265 264 264 262 263 263 263 263 262 261 261 261 262 263 263 265 265 265 265 265 268 267 269 271 272 273 274 273 275 273 272 271 271 272 273 272 272 274 275 276 276 276 276 276 274 271 274 275 274 274 271 268 268 267 267 267 267 267 267 268 268 269 270 270 271 272 272 273 273 273 273 273 273
278 276 274 273 271 269 267 266 265 264 264 264 263 263 263 262 261 262 262 262 263 263 264 263 263 263 263 265 265 266 266 266 268 270 270 272 272 273 274 274 275 273 273 272 273 273 272 271 272 275 275 274 274 274 274 273 271 273 273 273 272 270 267 266 266 266 266 266 266 266 266 268 268 268 269 270 271 271 272 272 272 272 272 272 273
275 274 273 271 269 267 265 264 263 263 263 263 263 263 262 261 262 263 262 263 264 264 265 265 264 264 265 264 265 266 267 268 268 270 271 271 272 273 273 274 274 275 273 274 273 272 273 275 275 274 273 273 273 272 270 270 271 272 271 271 269 265 265 264 264 264 264 264 264 265 265 266 267 268 269 270 270 271 271 271 272 272 272 272 272
273 273 272 270 268 265 263 262 262 262 262 263 263 264 263 262 264 265 264 264 264 264 265 265 264 264 264 264 265 266 266 267 267 268 270 270 271 272 273 273 274 275 274 274 274 274 274 274 273 272 271 270 268 267 267 267 270 270 269 268 264 264 264 264 264 263 263 263 263 264 265 266 266 267 268 268 268 268 269 270 270 270 271 271 271
271 271 270 268 266 263 263 263 262 261 261 263 263 264 265 264 264 265 265 265 265 264 265 264 264 264 263 264 265 265 266 266 267 268 268 269 270 270 271 272 273 274 273 272 272 271 270 270 269 271 270 270 270 269 268 268 266 265 265 265 264 264 264 264 263 263 263 263 264 264 265 265 266 266 266 266 266 268 269 269 269 270 270 271 270
271 270 269 267 265 263 264 263 262 262 261 262 263 263 264 264 264 264 265 265 264 264 264 264 264 264 264 265 265 265 265 266 267 267 268 269 270 271 271 271 272 272 271 271 270 269 268 269 268 266 265 265 265 264 264 264 265 264 264 264 264 264 265 266 266 264 264 264 264 264 264 265 264 264 265 266 266 267 269 269 269 269 270 270 269
270 269 267 266 265 263 264 264 264 264 262 262 263 264 264 263 264 264 266 266 266 266 265 265 265 265 265 265 264 264 265 265 267 270 270 271 271 271 271 271 271 272 272 273 269 267 267 265 264 264 263 263 263 263 263 263 263 263 262 262 263 263 263 263 263 263 264 264 263 263 263 264 264 265 265 265 266 267 268 268 268 268 268 269 268
268 268 266 266 265 263 264 264 264 265 264 263 263 263 264 266 265 264 264 266 268 269 268 265 265 265 264 265 266 265 265 267 271 272 272 273 274 274 274 274 274 274 274 273 270 266 264 263 263 263 262 262 262 262 262 262 262 262 262 264 263 262 263 263 263 263 264 263 263 263 263 264 264 265 265 265 265 266 267 268 267 267 266 266 267
268 268 266 266 265 264 264 264 263 264 264 264 264 263 263 264 268 269 268 267 268 269 270 270 270 270 266 265 267 271 272 272 273 273 274 274 274 273 273 274 274 273 272 269 266 264 263 262 262 262 262 262 261 261 262 261 261 261 261 261 262 262 263 262 263 263 263 263 263 264 264 264 264 264 264 264 264 265 266 266 266 266 266 266 266
269 268 267 266 265 264 265 264 263 263 263 263 263 263 263 264 265 269 270 270 270 270 271 271 272 272 273 272 270 269 271 273 273 273 272 273 273 273 273 274 272 271 270 269 264 262 262 262 261 261 261 261 261 261 261 261 260 260 260 260 261 262 262 262 263 262 263 263 263 264 264 264 264 264 264 264 265 264 265 265 265 265 265 266 266
269 268 267 266 265 264 264 264 263 263 262 262 262 262 263 263 264 265 267 270 271 271 271 271 272 272 272 272 272 272 272 272 272 272 272 272 272 272 273 272 270 270 269 265 262 261 261 261 261 261 261 260 261 260 260 260 260 260 260 260 260 261 262 262 263 263 263 264 264 264 265 264 265 264 264 264 264 263 264 264 264 265 265 265 265
267 268 267 265 264 264 263 264 263 263 263 263 263 262 262 263 263 264 263 263 265 267 270 270 271 271 271 271 271 271 271 271 271 271 271 271 272 272 272 268 269 269 267 262 261 260 261 260 260 260 260 260 260 260 260 260 260 260 260 260 261 261 261 262 262 263 263 264 264 264 265 265 265 264 264 264 264 264 264 264 264 264 264 264 265
266 265 263 263 265 264 264 264 264 264 263 262 262 261 262 262 262 261 261 261 262 263 263 265 267 269 267 267 268 269 269 269 270 270 271 271 271 272 270 266 264 264 263 260 260 260 260 260 259 260 259 259 259 259 259 258 259 259 259 259 260 260 261 261 261 262 263 264 264 264 265 265 265 265 264 264 263 263 263 264 264 264 264 264 265
264 264 263 263 264 264 264 264 264 263 262 262 262 261 261 261 261 260 260 260 260 260 260 262 262 264 266 267 267 268 269 269 269 269 270 270 271 269 265 264 263 262 261 260 260 260 260 259 259 259 259 259 259 259 259 259 259 259 259 259 259 260 260 260 261 262 263 264 264 264 265 265 265 265 264 264 264 264 263 264 264 264 265 265 265
264 264 263 262 263 264 263 263 262 262 262 261 261 260 260 260 260 260 260 260 259 259 260 260 260 260 263 262 262 265 266 267 268 268 269 269 270 265 263 262 261 260 260 259 260 259 258 259 259 259 259 258 259 259 259 258 258 258 260 260 259 259 259 260 261 263 263 263 264 264 264 264 264 265 264 263 263 264 264 264 264 265 265 265 266
262 263 263 262 262 262 261 261 261 261 260 260 260 260 259 259 259 259 259 259 259 259 258 259 260 259 259 260 263 260 260 263 265 266 267 268 265 262 262 261 259 258 258 259 259 258 257 258 258 258 258 258 258 258 258 258 258 258 258 258 259 259 261 261 262 262 263 263 263 264 264 264 264 264 264 263 263 263 264 264 264 264 264 265 265
261 262 263 263 263 261 261 260 260 259 259 260 260 259 259 259 258 258 258 258 258 258 258 258 258 258 259 259 259 260 259 259 260 260 262 264 263 261 260 259 258 258 258 258 258 257 257 257 257 257 257 257 257 257 257 257 258 258 258 258 258 259 259 259 260 261 262 262 263 263 264 264 264 264 264 263 263 263 264 264 264 264 264 264 264
261 261 261 262 262 262 261 260 259 259 259 259 259 259 258 258 258 258 258 258 257 257 257 257 257 257 259 258 257 258 257 258 259 260 261 261 261 259 258 257 257 257 257 257 257 257 256 257 256 256 256 256 256 257 257 257 257 257 257 257 257 258 258 259 260 261 261 262 263 263 264 264 264 264 264 264 264 264 264 264 264 264 264 264 265
261 261 260 262 262 261 260 259 259 259 259 258 259 258 257 258 258 258 257 257 257 257 257 257 257 258 258 259 262 261 258 258 259 260 260 260 260 259 258 258 257 256 257 257 256 256 256 256 256 256 256 256 256 256 256 256 256 256 256 257 257 258 258 259 259 260 261 262 262 263 263 264 264 264 263 263 265 264 264 264 264 264 264 264 265
261 260 260 260 261 261 259 259 259 258 258 258 258 257 257 257 257 256 256 256 256 256 256 256 256 257 259 261 262 263 262 260 260 260 260 260 259 258 258 257 257 256 257 256 256 256 256 255 255 255 255 255 255 256 256 255 256 256 256 256 256 257 257 258 259 260 260 261 262 263 263 263 264 264 263 264 263 263 263 263 263 264 264 264 265
260 259 259 259 259 259 259 259 259 258 257 257 257 257 257 256 256 256 256 255 255 255 255 255 256 256 257 260 260 262 260 260 259 259 259 258 258 257 256 256 257 256 256 256 256 255 255 255 255 255 255 255 255 255 255 255 255 255 255 255 255 256 256 257 258 259 260 261 262 262 262 263 263 263 262 262 262 262 262 262 263 263 264 264 264
258 259 258 258 258 258 258 258 257 257 257 256 256 256 255 255 255 255 255 254 254 255 255 255 255 256 256 257 258 258 257 257 257 257 255 256 256 256 256 256 256 256 255 255 255 255 254 254 254 254 254 254 255 253 255 255 255 254 254 254 255 256 256 257 258 258 259 260 261 262 262 262 263 262 261 261 261 261 262 262 262 262 263 263 263
258 258 257 257 256 256 256 256 256 256 255 255 254 254 254 254 254 255 255 254 254 254 255 255 255 255 255 255 254 254 255 255 255 255 255 255 255 255 256 255 255 255 255 254 254 254 253 253 253 252 252 253 254 254 254 254 254 254 254 254 254 254 255 255 256 258 259 259 260 261 261 262 262 262 261 260 261 261 261 261 261 262 262 262 262
257 257 257 256 256 256 255 255 255 255 254 254 254 254 254 254 254 254 254 254 254 254 254 255 255 254 255 254 255 255 255 254 254 254 254 254 255 255 255 255 255 254 254 254 254 253 253 253 253 252 252 253 253 253 254 254 254 254 254 254 254 254 255 256 257 258 258 259 260 260 260 261 262 262 261 260 260 260 260 260 260 261 261 261 262
256 256 256 256 256 255 255 255 254 254 253 254 254 254 254 254 254 254 254 254 254 254 254 254 254 254 254 254 254 254 254 254 254 254 254 254 254 255 255 254 254 253 253 253 251 253 252 252 252 252 252 252 252 252 252 253 253 254 254 255 255 255 255 256 257 257 257 257 258 259 259 260 261 261 261 260 259 259 260 260 260 260 260 261 261
255 255 256 255 255 255 254 254 254 254 253 253 253 253 253 254 254 253 253 253 253 253 253 253 254 254 254 254 254 254 254 254 254 254 254 254 254 254 253 252 252 252 252 252 252 252 252 252 252 252 252 252 252 252 252 252 253 253 254 255 255 255 256 256 256 256 256 256 257 258 259 260 261 261 260 259 258 259 259 259 260 260 260 260 261
255 255 255 255 255 255 254 254 254 253 253 253 253 253 253 253 253 253 253 253 253 253 253 253 253 254 254 254 254 254 254 254 253 253 253 254 254 254 253 252 252 252 252 252 252 251 252 252 252 252 251 252 252 251 252 252 252 252 253 253 254 256 256 256 256 255 256 257 257 258 260 262 262 260 259 258 258 259 259 259 259 259 259 260 260
255 255 255 254 254 254 255 254 254 254 254 254 253 253 253 253 253 253 253 253 253 253 253 254 253 254 254 254 254 254 253 253 253 253 253 254 254 253 253 252 251 251 251 251 251 251 251 251 251 251 251 251 251 251 251 252 252 252 252 253 255 255 256 256 256 256 257 258 259 261 262 262 262 259 258 257 258 258 258 258 259 259 259 258 259
254 254 254 254 254 254 254 254 253 253 253 253 253 253 253 253 253 253 253 253 253 253 253 253 253 253 254 254 253 253 253 253 253 253 253 253 252 252 252 251 251 251 251 251 251 251 251 251 252 252 251 251 251 251 251 252 252 252 253 254 255 255 256 257 257 258 260 261 261 261 262 262 261 259 258 258 257 257 259 259 258 258 258 258 258
Wind_Speed
8 8 7 7 8 7 7 6 6 6 6 6 6 5 5 5 4 4 4 4 3 3 3 3 3 2 2 3 3 3 3 4 3 4 3 4 4 4 4 4 5 5 5 5 4 5 5 6 6 6 6 6 6 6 7 7 6 7 6 6 7 7 7 9 12 15 15 9 9 10 8 9 10 8 10 11 9 9 10 10 11 11 12 12 12
8 8 7 7 8 7 7 6 6 6 6 6 6 5 5 4 4 3 4 3 3 2 2 2 2 2 2 2 2 2 3 3 3 3 3 4 4 3 4 5 5 5 5 5 5 4 5 6 7 6 6 6 7 7 7 7 7 7 7 7 8 8 7 9 11 12 17 15 11 9 8 8 11 8 9 12 12 10 11 11 10 10 10 10 11
8 8 8 8 8 7 7 6 6 7 6 5 6 5 5 4 3 3 3 3 3 2 2 1 1 1 1 1 2 2 3 3 3 3 4 4 4 4 4 5 5 5 5 5 6 6 6 6 6 6 5 7 7 7 7 7 6 8 9 7 8 8 8 8 9 12 15 16 13 12 9 8 10 11 10 10 12 11 12 12 11 10 10 11 11
9 8 8 8 8 8 7 7 8 7 6 5 6 6 5 4 3 3 2 2 2 2 2 1 1 1 1 2 3 3 3 3 3 4 4 4 4 5 4 4 4 5 5 5 5 5 6 6 6 6 7 7 7 7 6 6 7 7 8 8 8 9 8 8 9 10 12 15 15 12 11 11 11 11 10 10 11 11 11 12 12 12 12 11 12
9 9 9 9 9 8 8 7 7 7 6 6 6 6 5 4 3 2 2 2 2 2 1 1 1 1 1 2 3 3 3 3 4 4 4 4 4 4 5 4 4 5 5 5 5 5 6 6 6 7 7 7 7 7 7 9 8 8 9 8 8 8 8 8 9 10 12 14 16 12 11 11 10 12 12 12 12 11 11 12 12 12 12 11 9
9 9 9 9 9 9 8 8 8 7 7 6 6 5 5 4 3 3 2 2 2 2 1 1 1 2 2 2 2 3 3 3 3 4 4 4 4 4 4 5 5 5 5 5 5 5 5 6 6 6 7 7 7 7 8 9 9 8 9 9 9 9 9 10 9 10 12 13 14 16 12 12 12 10 11 11 13 13 12 11 11 10 11 12 12
10 10 10 9 9 9 8 8 7 7 7 6 6 5 5 4 3 3 2 2 2 1 1 1 0 1 1 2 2 2 3 3 3 3 4 4 4 4 5 5 5 5 5 5 6 6 6 6 6 6 7 7 7 7 9 10 8 9 9 9 9 9 10 10 10 11 11 12 13 13 14 12 11 13 12 12 14 12 13 13 12 10 10 12 13
11 10 10 10 9 9 8 7 7 7 6 6 6 6 5 4 4 3 2 2 2 1 1 1 1 1 1 2 2 2 3 3 2 3 3 4 4 5 5 5 5 5 6 6 6 6 6 7 6 7 7 6 7 8 8 8 8 9 9 8 9 10 10 10 10 10 11 11 12 13 12 13 12 10 12 13 12 11 9 11 14 14 13 12 11
11 10 9 9 9 9 8 7 6 7 7 6 6 6 5 4 3 3 2 2 2 2 1 1 1 2 2 2 2 2 2 2 1 2 3 4 4 5 5 6 6 6 6 6 6 7 7 6 7 6 7 10 14 12 12 11 10 10 9 9 10 10 10 9 9 10 10 11 12 11 12 12 11 12 13 12 12 13 12 11 12 12 12 13 11
10 9 9 9 9 8 8 7 7 7 7 6 6 6 5 4 4 3 3 2 2 2 2 2 2 2 2 2 2 2 2 2 0 3 5 4 5 5 5 6 6 6 7 7 7 7 7 7 7 11 13 13 13 14 13 13 14 12 11 10 10 9 9 10 10 9 10 11 11 11 12 12 12 12 13 13 13 12 12 12 12 12 12 13 12
11 11 11 10 9 8 8 7 7 7 7 6 4 6 5 4 3 2 2 2 3 2 3 3 3 2 3 2 3 3 2 2 3 5 6 7 6 5 6 6 6 7 7 7 7 7 7 7 7 9 10 10 9 11 13 15 15 15 16 16 14 11 10 11 11 11 11 11 11 12 12 15 15 13 13 14 12 12 12 11 12 12 13 13 14
11 11 10 9 9 9 8 8 8 7 6 5 5 4 4 3 3 3 3 3 2 2 3 3 3 3 2 3 3 3 3 4 5 6 7 7 7 6 6 6 6 6 7 7 7 7 7 7 7 6 7 8 9 10 12 14 15 16 16 16 17 17 17 13 12 11 10 12 11 11 13 14 15 14 13 13 13 13 12 13 13 13 12 12 13
11 11 8 9 8 8 8 7 6 5 5 5 5 4 4 4 4 4 4 3 3 3 4 4 4 3 3 3 4 4 4 4 5 6 7 8 9 8 5 6 6 7 7 8 8 8 7 7 7 7 7 11 9 9 9 10 12 16 17 17 16 16 17 19 20 16 14 14 13 14 13 15 16 14 13 14 14 16 15 14 13 13 14 14 13
12 10 8 8 8 8 8 6 6 6 5 5 5 5 5 5 4 4 3 3 4 4 3 3 3 3 3 3 4 4 5 5 6 7 8 9 9 8 6 7 7 7 8 8 8 7 7 8 8 8 8 9 9 9 9 10 12 12 11 11 12 15 18 21 23 25 21 16 15 15 16 15 16 16 15 16 16 14 13 13 13 14 12 13 14
10 7 8 8 8 5 7 6 6 6 6 6 5 5 5 5 5 4 4 5 5 4 4 4 3 2 2 2 4 4 5 7 7 8 9 10 10 9 6 6 6 7 7 7 8 9 9 9 9 10 10 9 8 11 12 12 11 10 11 12 12 13 14 14 14 14 14 14 15 16 17 17 19 18 17 14 15 14 12 13 13 14 15 14 14
8 8 7 8 8 8 7 7 6 6 7 6 6 6 6 6 6 5 4 4 3 2 2 2 3 3 3 3 3 5 6 7 7 8 9 9 11 6 6 6 6 6 7 8 8 8 8 9 9 10 11 11 14 19 17 15 13 13 14 14 12 12 13 15 21 21 20 17 17 17 16 17 20 18 18 16 14 13 14 13 11 11 12 12 12
8 11 9 8 9 9 9 7 6 7 7 7 6 6 7 6 6 5 4 4 4 4 4 3 2 3 3 3 4 5 5 6 7 9 9 10 8 5 5 6 6 7 7 8 8 8 8 9 10 10 12 12 16 20 20 20 13 13 13 13 12 10 10 11 18 25 27 28 30 30 30 30 29 28 27 28 19 15 11 11 10 10 12 13 12
10 10 8 9 9 9 9 9 11 8 7 8 7 6 5 4 5 5 5 5 4 4 3 3 3 3 4 4 4 4 5 7 9 9 10 10 8 6 6 6 7 7 7 8 7 8 10 14 14 12 13 14 18 21 22 18 12 12 13 16 17 15 13 10 10 12 20 24 25 25 26 26 26 26 25 24 24 18 11 13 12 11 12 11 13
13 15 11 8 9 7 8 9 10 11 10 8 7 8 6 5 5 4 3 3 3 3 3 2 3 3 3 4 6 6 5 7 10 10 10 9 7 5 5 6 7 7 7 7 8 8 9 10 15 15 14 16 21 21 23 19 13 13 14 14 14 14 12 12 12 13 12 9 8 10 11 15 14 13 14 23 24 22 15 13 10 10 11 11 11
10 7 7 8 6 8 9 11 11 12 11 8 5 5 4 4 4 4 4 3 3 3 3 3 3 3 3 3 4 5 5 5 6 10 9 10 10 6 5 6 7 7 7 7 8 8 8 9 11 15 18 19 20 22 23 24 17 13 13 12 13 15 12 14 15 13 10 7 10 11 14 14 14 14 13 12 13 12 13 11 10 9 10 10 10
9 9 10 9 9 10 9 10 12 9 8 8 5 4 4 4 5 4 4 3 3 3 3 2 2 3 4 4 4 5 5 5 6 10 10 10 10 9 6 6 6 7 7 8 8 8 9 9 8 13 17 21 22 23 24 25 23 15 12 11 12 17 20 13 13 15 10 10 12 12 11 10 10 9 9 10 9 8 8 10 9 10 10 10 11
11 9 11 11 11 10 9 8 7 8 7 7 6 5 3 3 4 4 3 3 4 3 2 2 3 3 3 4 4 5 6 10 6 9 10 10 10 11 7 7 7 7 8 8 8 8 9 8 7 13 20 21 22 24 25 24 25 14 13 19 23 23 16 12 10 10 10 10 9 9 9 9 8 8 8 8 7 8 8 8 8 9 10 11 10
9 9 10 10 10 10 8 9 8 7 7 5 8 6 4 3 3 3 3 3 4 4 4 3 2 3 3 3 4 4 4 5 10 7 9 10 10 10 11 9 11 9 8 9 9 8 6 7 10 17 19 22 23 25 23 24 18 12 19 20 20 21 16 8 9 8 8 9 9 10 10 9 8 8 8 8 8 8 8 8 8 9 9 10 11
7 8 9 9 8 8 8 7 7 5 5 5 5 5 5 4 4 4 4 4 4 4 3 4 3 3 3 3 3 3 3 4 7 10 8 10 10 11 11 11 11 8 8 8 7 6 6 8 11 19 21 23 24 22 21 18 12 17 18 19 18 15 8 8 8 8 9 10 10 9 9 9 9 9 9 8 9 10 11 10 10 11 11 11 12
9 10 10 9 9 8 8 7 6 5 5 5 6 5 5 5 4 4 4 4 3 3 2 2 3 2 2 2 2 2 3 3 3 6 8 9 10 10 10 11 11 13 9 6 6 6 10 17 19 19 21 23 22 19 14 13 16 16 17 16 14 5 6 6 8 8 9 9 9 10 10 10 10 11 12 12 13 12 11 10 10 10 11 11 12
10 11 10 9 9 10 10 7 6 4 5 4 4 5 6 6 5 5 5 4 4 3 2 3 3 3 3 2 3 3 3 3 3 3 5 6 7 8 10 11 12 12 11 9 12 15 16 17 19 20 18 16 12 9 9 9 15 15 14 12 4 5 5 6 7 8 9 9 10 10 10 10 10 11 12 12 11 10 10 10 10 10 9 9 10
10 8 8 8 8 9 10 6 6 5 4 4 4 4 5 6 6 4 4 4 4 3 3 3 3 3 3 3 3 3 3 3 3 3 3 3 4 4 5 6 9 10 7 4 6 5 8 9 10 16 14 17 15 13 11 11 7 6 5 4 4 4 5 5 7 8 9 9 10 10 9 10 10 11 10 10 10 10 9 10 10 10 10 10 10
10 10 9 7 5 6 5 8 7 5 6 5 6 5 5 5 5 6 6 5 5 4 4 4 5 4 3 3 3 3 3 3 4 4 4 4 4 5 5 5 6 5 3 3 2 2 4 8 10 6 5 5 5 4 3 3 5 5 4 4 4 5 8 12 11 7 7 8 9 10 10 10 9 9 10 9 9 9 9 9 10 11 10 10 10
6 7 7 6 5 6 5 5 5 5 6 6 5 5 6 7 6 4 3 3 3 4 4 4 5 4 3 4 4 4 4 5 5 7 7 8 7 5 5 5 6 5 4 6 0 2 2 4 4 4 3 4 4 4 4 4 3 3 4 4 4 4 4 4 6 7 7 8 9 10 10 9 9 9 9 10 10 10 9 10 10 10 11 10 11
7 8 6 5 5 6 5 5 5 5 6 6 5 3 6 9 7 5 4 8 11 10 8 5 4 4 5 5 5 6 6 6 9 12 12 12 13 13 12 13 12 10 8 7 3 2 3 3 4 3 4 3 4 4 4 4 4 5 3 6 6 4 5 5 6 6 8 9 8 9 9 9 9 10 10 10 11 10 10 11 11 10 10 10 11
4 4 5 5 6 6 5 5 5 4 4 5 5 5 4 6 13 15 11 9 10 13 14 15 14 13 8 6 9 15 16 16 17 16 15 14 13 12 13 12 14 5 2 3 1 2 3 3 4 3 3 3 4 4 4 4 4 5 5 4 4 5 6 5 6 7 8 9 9 8 8 9 9 10 10 11 12 12 10 9 9 9 9 10 11
5 5 5 4 6 6 4 4 5 4 4 4 4 4 4 3 4 12 16 15 14 13 13 15 16 16 18 15 10 7 12 15 14 12 12 13 13 13 12 13 3 2 2 3 1 3 3 3 3 3 3 3 4 4 4 4 4 4 5 5 5 4 6 5 6 7 8 8 8 8 8 8 9 10 10 10 12 11 10 10 10 10 10 10 11
8 6 5 6 5 6 5 5 5 5 5 5 4 4 4 3 4 2 5 12 14 14 14 16 16 16 15 15 17 15 13 11 13 12 13 12 13 12 13 6 3 1 2 2 2 3 3 3 3 3 3 4 4 4 4 4 4 4 4 5 7 6 5 6 9 8 8 8 8 8 8 8 9 9 10 10 10 10 11 11 10 10 10 11 11
6 4 5 7 6 5 5 5 5 5 5 4 4 4 4 3 2 2 2 2 4 8 13 15 15 14 14 14 14 13 12 13 13 14 14 14 12 13 12 3 2 1 2 2 2 3 3 3 3 3 3 3 3 4 4 4 3 4 4 5 6 7 7 7 7 7 8 8 8 8 8 8 9 9 9 9 9 9 10 10 10 10 10 10 11
4 3 9 8 3 5 5 5 5 4 4 4 4 3 3 3 3 2 2 3 3 3 3 4 7 10 7 7 9 12 13 13 14 14 14 13 14 11 3 1 2 1 2 2 3 3 3 3 3 3 3 3 3 3 4 4 3 3 4 5 6 6 7 7 7 8 8 8 8 8 8 9 9 9 9 9 9 10 10 10 10 10 10 11 11
4 3 4 5 3 3 4 4 4 4 4 4 3 3 3 3 3 3 3 3 3 3 3 3 2 4 8 9 11 13 14 14 14 13 13 13 13 7 3 3 2 3 3 3 3 3 3 3 3 3 3 3 3 3 4 4 3 3 4 5 6 6 7 7 8 8 9 8 8 9 9 8 8 9 9 9 10 10 9 10 10 10 11 10 10
4 4 4 4 4 3 3 3 3 4 4 4 3 3 3 3 2 3 3 4 4 3 3 2 1 2 6 5 7 8 9 10 11 12 11 13 9 4 2 2 2 3 3 3 3 3 3 3 3 3 3 3 3 3 3 4 4 4 5 6 5 7 6 7 8 9 9 8 8 8 8 8 8 9 9 10 10 9 9 10 10 12 12 13 14
3 4 4 5 4 3 3 3 3 6 4 4 3 3 3 3 4 4 4 4 4 3 3 3 4 2 2 2 4 2 3 7 9 10 10 11 4 2 3 3 3 3 3 3 3 3 3 3 3 3 3 3 3 3 4 4 4 4 4 4 5 5 11 11 11 9 9 8 8 8 8 8 8 8 9 9 10 10 10 10 10 11 12 13 10
2 5 8 10 6 4 4 4 4 4 3 4 3 3 3 3 4 4 4 3 3 3 3 3 3 3 3 2 1 2 2 2 3 4 5 5 3 2 2 3 3 3 3 3 3 3 3 3 3 2 3 3 3 4 4 4 3 4 4 4 6 6 6 6 7 8 8 8 8 8 8 8 7 8 8 9 10 10 10 11 11 10 11 11 11
5 4 6 9 5 5 4 4 4 4 3 4 4 4 3 3 3 3 3 3 3 3 3 3 4 4 3 1 1 1 3 4 3 3 3 3 3 3 3 3 3 3 3 3 3 3 3 3 3 3 3 3 4 4 4 4 4 4 4 4 5 6 6 6 7 7 8 8 8 8 8 8 8 8 8 9 9 10 10 11 10 10 10 11 12
5 5 5 6 5 5 4 4 4 4 4 4 3 3 3 3 3 3 3 3 3 3 3 3 4 3 3 5 9 8 5 4 3 3 3 3 3 3 3 3 3 3 3 3 3 3 3 3 3 3 3 3 4 4 4 4 4 4 4 5 5 6 6 6 7 7 8 9 8 8 8 8 8 8 9 10 12 11 10 10 10 10 10 10 11
5 5 5 5 6 5 5 3 3 4 4 3 4 3 3 3 3 3 3 2 3 3 3 3 4 3 6 12 11 13 8 5 6 6 5 4 3 3 3 3 3 3 3 3 3 3 3 3 3 3 4 4 4 4 3 4 4 4 4 4 4 5 6 7 6 7 8 8 8 8 8 9 9 8 10 11 10 9 10 10 10 10 10 10 10
5 5 5 4 5 4 4 4 4 4 4 4 3 3 3 2 2 2 3 3 3 3 3 4 3 3 4 8 8 9 6 5 4 4 4 3 3 3 3 3 3 3 3 3 3 2 3 3 3 4 4 5 4 4 5 5 4 4 4 4 5 5 6 7 7 7 7 8 8 8 9 9 8 6 7 9 9 9 9 10 10 9 10 10 10
4 4 3 4 3 3 3 3 3 3 3 3 2 2 2 2 2 3 3 3 3 3 3 4 3 3 3 3 4 4 4 4 3 3 3 3 3 4 3 3 3 3 3 3 3 3 3 4 4 4 4 4 4 4 5 5 5 5 5 5 5 6 6 6 7 7 7 7 8 9 8 9 9 6 7 9 8 9 10 10 9 9 10 9 9
4 4 4 3 3 3 2 2 2 2 2 2 2 2 3 3 3 3 3 3 4 4 3 3 3 3 3 3 3 3 3 3 4 4 4 4 4 4 3 3 3 3 3 3 3 3 4 4 4 4 5 5 5 5 6 6 5 5 5 5 5 7 7 6 6 6 8 9 9 8 8 9 9 7 7 8 8 8 9 9 9 10 10 9 9
3 3 3 3 3 2 3 2 2 2 2 2 2 2 3 3 3 3 3 3 3 3 3 3 3 3 4 3 3 4 3 3 3 3 4 3 4 4 3 3 3 3 3 3 3 4 4 4 4 5 5 5 5 5 5 5 5 6 6 6 7 8 7 7 6 7 8 8 9 8 8 9 9 7 9 8 8 7 8 9 8 8 8 9 9
2 2 2 2 2 2 2 3 2 2 2 2 2 2 2 3 3 3 4 5 4 4 3 3 3 3 3 3 4 3 3 3 3 3 4 5 4 4 3 3 3 3 3 4 4 4 4 5 5 6 6 6 6 6 6 6 5 5 5 6 6 7 7 6 7 6 6 7 8 8 8 9 9 8 9 8 7 8 8 8 8 9 9 8 8
2 2 2 2 2 2 2 2 2 3 2 2 2 2 2 2 3 3 3 3 4 4 4 4 4 4 4 4 3 3 3 3 3 4 4 4 4 5 5 5 5 5 4 4 4 4 5 4 5 5 6 6 6 6 6 6 6 6 6 6 6 7 8 9 7 7 7 8 8 9 9 10 9 7 6 7 7 7 7 8 7 7 8 8 8
2 2 2 2 2 2 2 2 2 2 2 2 2 2 3 3 3 3 3 3 3 3 4 4 4 4 4 4 3 3 3 3 4 4 5 5 5 5 5 5 5 5 4 5 5 5 5 5 5 5 6 6 6 6 6 6 7 6 7 7 9 14 15 15 10 9 11 9 9 9 10 9 8 6 7 6 7 7 7 7 7 7 7 7 7
1 1 1 1 1 1 1 1 1 1 2 2 2 2 2 3 3 3 3 3 3 3 4 4 4 4 4 4 3 4 4 4 5 5 5 5 4 4 4 5 5 5 5 5 5 5 5 5 5 6 6 6 7 7 6 6 7 7 7 8 12 15 15 16 16 18 13 9 10 9 9 10 8 6 6 7 6 7 7 6 6 7 7 7 6
2 1 1 1 1 1 2 2 2 2 2 2 2 3 3 3 3 3 3 4 4 4 4 4 4 4 4 4 4 4 4 5 5 4 4 4 4 4 5 5 5 5 5 5 5 5 5 5 6 6 6 6 6 7 6 6 6 7 10 14 16 16 17 16 12 14 17 14 9 9 9 9 7 6 6 6 5 5 8 7 7 6 6 6 6
Wind_Direction
148 145 144 145 147 151 147 144 134 122 114 112 110 106 102 92 86 92 88 74 61 62 60 47 35 26 16 13 16 358 2 356 346 344 341 341 337 339 328 329 328 324 327 326 326 330 323 318 313 316 323 320 316 312 308 306 307 302 299 298 295 296 297 291 288 290 291 290 295 302 312 310 299 300 300 305 308 309 307 305 304 300 297 294 293
154 148 149 152 159 153 150 144 135 124 124 123 115 113 104 96 98 98 97 90 84 73 69 61 27 21 8 359 5 352 353 347 340 342 338 332 332 335 328 331 326 325 328 325 331 330 324 317 319 322 331 322 312 310 312 313 311 312 310 308 302 300 300 296 291 290 293 303 298 303 310 312 302 320 321 315 309 310 308 304 296 290 286 290 292
154 154 155 160 162 156 153 148 138 135 134 129 122 116 109 102 98 100 95 109 106 82 63 54 27 356 345 359 1 356 355 348 341 339 332 332 328 330 329 328 325 324 325 325 327 326 325 321 319 329 326 318 313 312 311 312 319 311 306 305 301 300 300 296 295 294 296 296 304 310 316 326 314 317 321 310 307 312 308 306 306 305 300 295 291
158 159 161 164 162 160 158 150 148 147 141 130 127 120 116 110 102 102 107 106 115 109 117 66 18 346 356 10 1 354 352 347 338 335 332 328 327 323 323 321 319 316 316 319 321 321 318 319 318 326 321 314 315 314 313 316 314 309 307 304 302 300 303 304 300 296 299 299 301 309 315 320 316 310 312 312 311 311 310 306 303 301 301 299 297
162 163 166 165 165 166 161 157 156 153 142 135 129 122 121 118 111 114 136 141 134 135 136 113 22 14 13 2 348 345 344 336 329 324 325 324 321 317 313 318 314 313 310 308 313 315 313 311 314 318 317 313 312 316 317 317 315 313 306 308 304 305 303 300 300 300 297 295 299 304 314 312 313 312 317 316 312 308 307 302 301 299 295 291 287
166 166 169 169 170 171 166 162 161 153 143 136 132 128 122 125 132 141 146 159 148 143 111 44 74 6 358 338 334 329 331 324 316 314 319 322 315 314 315 313 311 308 307 305 308 306 302 303 307 306 308 309 308 312 316 317 316 308 310 311 312 311 311 311 309 306 302 296 300 305 311 316 316 310 314 315 314 315 310 304 304 308 315 320 318
168 171 173 172 173 173 169 167 159 152 147 140 134 131 130 131 148 153 152 156 148 134 96 116 15 36 312 327 311 324 316 308 306 316 320 321 321 319 318 312 308 308 301 303 300 297 296 297 299 298 299 302 306 314 320 314 309 311 313 313 315 315 312 310 309 306 301 299 299 300 304 309 312 312 315 316 311 309 311 313 310 315 314 307 305
171 175 174 176 175 173 170 163 156 149 140 135 136 135 134 143 150 153 156 172 140 135 137 129 192 198 276 290 296 301 301 294 304 326 335 331 324 317 311 308 305 303 300 297 299 294 293 292 287 291 293 300 313 312 308 306 308 305 304 307 310 310 307 306 305 304 302 300 298 304 304 305 309 305 306 308 307 306 309 312 309 311 308 305 309
174 175 176 176 175 167 158 152 145 135 138 138 138 140 144 149 157 158 165 156 137 147 166 177 209 224 233 251 264 282 274 276 299 3 333 324 316 306 302 300 300 298 299 297 296 293 291 290 289 290 299 299 296 292 290 293 297 297 300 301 304 304 301 300 301 300 298 297 298 299 300 303 306 310 310 308 309 308 311 307 299 304 307 306 305
173 176 178 178 166 158 152 147 147 144 148 150 145 145 148 156 163 168 168 163 162 160 182 209 213 226 237 253 263 254 256 251 162 295 296 297 301 295 296 292 293 296 297 297 294 293 291 290 292 294 293 293 291 290 289 291 292 289 291 296 296 297 297 298 296 296 296 296 297 301 302 301 304 305 302 300 300 302 303 304 305 308 308 302 300
178 179 183 173 155 151 149 154 150 157 156 146 141 146 154 158 165 169 173 167 179 179 208 205 213 217 226 250 261 263 248 233 240 285 295 297 297 292 290 290 287 289 289 290 293 295 293 295 295 297 297 292 291 293 298 295 295 294 290 287 286 288 294 293 290 291 293 290 292 293 294 296 297 297 296 299 297 298 300 303 301 303 304 305 307
180 181 178 151 151 153 157 152 157 159 151 146 146 150 150 156 169 177 181 180 191 186 213 206 212 218 223 243 252 253 261 253 266 283 294 295 295 293 288 287 287 287 288 288 289 292 296 297 295 297 293 294 296 296 293 292 292 295 295 294 292 288 284 284 288 290 285 287 286 286 291 290 292 293 294 293 295 295 295 295 294 294 295 296 298
182 181 157 149 152 159 154 156 160 156 156 148 147 144 151 164 179 183 192 184 180 195 206 194 212 215 227 242 256 263 262 262 269 286 293 295 297 296 286 283 283 283 283 285 287 290 292 295 296 292 292 295 295 294 294 296 299 300 300 298 294 291 289 287 286 283 285 282 281 282 280 286 286 284 282 286 289 291 292 288 287 287 288 284 287
180 167 146 151 156 158 157 159 159 160 151 147 149 154 164 180 184 187 176 177 194 197 194 202 211 217 230 251 262 267 270 266 277 287 293 296 297 295 286 283 280 278 278 281 284 286 290 292 293 292 292 295 294 294 297 298 299 298 293 288 282 275 276 282 287 285 281 277 276 274 277 275 277 279 280 281 284 284 284 281 285 284 279 279 287
171 148 150 155 154 156 161 162 161 157 151 154 157 166 171 180 179 187 180 191 188 193 194 201 207 212 235 248 260 271 269 269 277 287 294 298 297 298 288 283 278 275 275 273 280 283 284 286 286 288 289 292 292 294 296 295 292 284 275 270 262 261 262 259 265 275 269 268 268 270 273 274 273 273 276 276 274 273 275 281 282 282 286 289 282
158 149 154 164 164 168 160 165 162 158 159 159 163 175 175 181 183 189 184 187 185 182 192 184 200 216 228 233 250 264 268 275 283 291 296 297 300 299 288 278 276 274 274 274 276 275 278 278 283 285 287 287 292 294 293 294 292 287 280 274 266 262 255 251 262 270 275 270 264 263 260 261 265 272 274 272 273 275 278 279 283 287 289 290 290
166 170 177 169 169 169 170 168 163 164 164 161 174 179 174 179 186 182 177 189 181 188 183 193 203 213 223 228 240 260 270 282 286 289 291 293 300 291 281 273 271 275 275 277 277 278 275 278 280 281 286 286 290 295 296 297 287 281 282 286 277 257 258 254 264 272 274 275 277 278 282 286 291 292 294 295 295 294 295 295 294 301 293 292 290
180 179 178 176 165 168 176 170 160 159 163 173 173 176 166 174 183 183 176 180 180 178 181 188 206 219 224 230 235 249 268 279 284 284 284 286 284 280 276 277 276 277 279 278 279 277 277 278 278 281 284 287 292 295 298 303 299 296 292 287 286 283 282 276 275 269 272 278 285 288 291 293 294 298 299 297 296 297 295 288 290 288 283 281 287
188 179 177 159 167 169 166 156 165 162 163 174 168 172 166 175 172 166 176 167 166 167 179 194 204 224 225 233 245 248 259 271 277 277 275 275 276 269 268 272 275 277 280 285 283 282 283 281 283 285 287 291 296 301 306 308 302 298 294 296 298 299 302 306 304 305 303 296 292 297 298 297 295 291 286 285 284 284 282 282 284 277 279 281 282
188 143 150 150 156 158 167 180 182 181 170 157 151 151 144 163 163 167 171 172 172 178 177 196 199 233 238 234 238 240 246 253 256 264 266 268 268 264 267 266 272 279 281 286 289 285 283 285 289 291 295 301 307 310 310 308 305 305 309 308 307 306 315 308 306 307 313 314 304 298 292 288 283 281 277 275 276 276 280 281 281 282 283 283 280
167 149 160 153 173 180 171 181 182 179 167 159 141 134 154 166 160 165 166 175 162 170 172 193 214 240 244 241 240 243 236 242 254 259 262 262 263 264 259 261 267 275 280 283 286 291 297 290 288 299 308 312 311 310 310 312 312 311 312 307 302 302 307 308 314 319 312 306 299 291 285 283 283 282 281 280 279 277 276 277 278 280 282 283 284
176 167 180 182 181 178 179 175 167 160 149 149 137 141 150 147 154 159 184 167 152 167 183 205 220 235 241 239 239 242 245 244 244 257 260 262 262 259 256 257 263 271 277 283 290 290 288 297 314 315 311 309 310 314 314 313 314 316 308 304 307 312 316 317 314 308 300 298 297 296 295 294 293 292 288 287 287 286 285 282 279 279 280 277 278
182 182 180 181 180 179 172 165 163 154 147 136 143 144 137 140 153 169 176 151 162 175 191 201 220 235 241 243 234 229 233 243 246 246 253 258 262 260 259 262 272 279 284 287 282 283 299 316 315 308 306 312 315 314 314 316 318 311 311 317 319 321 322 313 309 308 306 306 304 299 297 297 298 298 296 295 294 288 285 284 285 283 278 275 273
174 177 181 182 172 169 162 152 142 126 142 140 132 138 152 152 167 184 182 188 182 182 194 186 202 219 225 242 233 231 227 228 244 243 249 257 261 264 266 270 275 276 276 270 278 302 320 314 300 305 313 314 313 314 316 317 314 316 321 323 331 331 322 318 316 312 308 304 300 298 299 302 301 299 298 300 299 299 296 294 289 283 278 277 274
172 182 185 180 174 161 145 135 140 141 145 144 147 153 149 157 185 188 174 199 197 181 196 188 207 227 236 238 247 243 237 232 238 252 259 267 268 267 267 271 278 283 283 284 294 302 298 299 307 312 311 311 312 314 315 313 314 319 323 329 334 327 324 318 317 313 309 306 304 302 301 301 302 301 304 305 303 299 294 290 284 280 276 272 269
182 191 185 177 167 154 151 132 132 137 149 159 161 168 162 179 201 188 182 193 186 184 194 197 207 217 224 231 237 239 235 242 248 252 259 266 264 260 264 274 281 281 278 281 288 297 301 304 305 307 308 308 309 304 302 305 313 320 325 331 328 318 319 315 311 312 306 304 302 301 302 305 305 307 306 301 298 296 299 295 296 291 290 288 285
188 184 180 160 144 145 154 157 156 151 167 165 174 182 177 183 198 198 187 183 185 185 191 194 208 215 214 222 231 229 235 232 248 251 246 247 247 257 266 274 283 285 284 274 284 288 289 293 296 300 301 301 301 302 303 306 308 311 319 322 317 310 310 306 305 305 305 303 304 304 306 305 305 306 306 308 302 300 301 300 298 296 298 294 289
190 189 175 144 148 155 168 161 159 161 177 177 178 184 188 193 196 200 191 186 175 188 182 196 201 208 210 212 212 222 230 236 235 244 241 239 243 252 268 276 280 282 228 253 252 264 286 293 298 291 283 290 294 288 282 288 299 305 310 312 306 308 309 308 306 299 298 302 302 305 304 307 306 305 304 303 303 301 302 302 303 302 301 302 295
186 168 157 139 151 155 172 163 178 168 167 181 200 190 185 190 200 213 214 197 192 180 189 199 197 201 199 202 202 223 233 238 234 237 243 239 246 252 273 273 275 277 223 277 285 217 274 290 284 288 283 289 293 295 298 303 303 300 296 299 310 312 308 305 308 306 308 311 310 309 307 305 304 305 303 303 306 309 312 309 306 305 305 300 294
171 175 162 164 156 153 176 166 176 174 162 176 183 216 220 209 206 197 206 210 218 220 209 207 197 185 197 214 201 218 226 237 253 253 252 254 257 272 277 278 278 278 281 306 341 317 289 285 283 284 291 288 293 296 302 306 303 312 310 319 316 307 307 308 305 309 315 313 308 305 303 306 307 310 312 310 309 309 309 311 308 307 303 301 300
172 167 162 181 171 161 162 164 169 176 174 171 179 190 203 224 225 227 223 213 217 224 227 229 227 221 209 212 227 236 250 254 255 253 254 254 265 274 277 276 281 291 354 46 0 285 281 276 280 282 279 286 286 292 300 300 306 306 310 310 302 309 313 305 306 315 313 306 301 299 301 307 309 312 313 312 310 309 309 306 302 301 299 301 300
180 180 172 158 153 163 167 163 156 172 180 175 180 176 198 203 218 221 225 226 226 228 230 233 235 237 239 238 231 225 248 255 259 265 268 268 267 268 271 278 274 107 39 54 282 264 259 263 271 274 282 285 283 293 298 297 298 304 307 311 309 310 309 305 311 307 301 297 299 305 308 310 309 310 308 309 310 309 307 307 307 306 303 299 296
200 177 146 149 157 167 175 167 171 172 176 174 179 183 193 200 216 213 210 225 231 236 241 244 246 246 245 248 251 254 252 249 251 253 257 261 264 267 267 263 128 25 63 312 216 261 253 252 255 265 272 275 289 291 291 294 297 303 307 304 304 304 303 301 304 295 297 302 306 306 311 310 309 310 309 308 309 306 307 305 305 302 301 300 300
200 184 147 149 154 167 177 173 171 180 178 176 178 174 191 199 203 199 183 195 221 238 243 246 247 246 249 248 249 250 256 260 263 263 262 261 261 262 264 179 251 278 207 195 241 235 251 243 251 255 263 272 278 284 286 290 298 299 300 296 295 301 303 303 301 304 301 306 307 306 307 308 312 311 309 308 304 303 301 303 304 306 306 304 302
180 159 155 159 156 162 168 174 169 167 161 166 168 174 185 183 183 184 209 218 231 221 198 223 234 235 235 244 248 252 256 261 260 260 258 258 260 257 167 167 263 227 179 176 209 234 232 243 244 255 256 266 266 275 281 283 289 295 297 300 300 297 301 306 304 304 303 308 308 305 306 309 310 308 310 309 309 308 306 307 306 304 303 302 303
156 142 145 158 153 161 164 163 162 158 156 160 156 167 165 173 186 204 209 225 234 251 265 238 225 249 253 254 255 256 256 254 256 255 258 256 259 179 198 229 225 227 212 207 205 225 225 232 242 248 253 258 269 269 273 280 281 290 295 292 292 296 302 302 301 299 300 303 304 308 310 307 308 310 309 308 307 306 307 305 303 303 303 301 301
162 153 150 159 157 155 142 137 139 148 146 133 144 153 164 179 194 200 212 217 221 234 240 256 270 260 242 235 248 257 255 257 256 256 252 259 227 158 197 206 218 230 228 222 219 212 225 230 227 244 249 254 261 267 273 274 279 280 285 286 285 292 291 289 293 298 302 303 304 304 307 308 309 311 314 312 311 309 304 303 304 305 307 307 309
145 145 148 129 132 123 119 126 129 137 132 147 158 165 178 185 190 205 216 222 222 220 231 241 240 252 250 247 183 177 288 284 270 262 256 248 189 171 189 197 196 214 224 230 211 211 222 234 233 236 248 253 258 262 264 271 273 275 276 282 290 285 294 297 299 295 294 298 302 308 307 307 307 310 312 309 308 308 308 310 310 309 309 311 310
117 117 126 139 147 146 148 138 142 146 155 155 173 172 187 191 197 207 215 222 224 231 238 238 240 239 242 236 232 253 259 258 226 226 221 218 197 175 179 186 197 211 221 221 227 216 230 231 235 232 243 249 253 256 259 264 268 271 281 284 286 287 291 290 293 297 297 296 301 303 303 305 310 312 313 309 306 305 307 309 310 310 310 310 309
142 138 146 150 150 152 139 144 146 154 169 166 181 178 187 198 207 212 219 221 229 227 226 231 236 240 240 220 211 231 234 241 237 237 234 229 207 186 182 199 210 213 216 222 218 219 219 236 228 238 240 245 248 251 253 262 263 267 271 274 277 283 285 289 290 294 296 298 299 302 304 307 310 312 310 308 306 307 309 310 310 311 310 308 307
145 142 148 166 154 151 144 150 161 169 170 171 178 179 196 203 211 217 222 223 229 233 240 242 246 251 243 238 244 235 221 238 250 249 238 225 229 218 209 215 214 219 220 220 222 224 225 229 234 237 246 246 253 252 254 252 264 268 265 264 269 275 284 286 286 286 291 294 295 298 304 305 307 311 313 313 313 312 307 306 307 307 306 303 304
147 142 152 163 166 162 152 165 168 163 162 166 179 188 194 196 205 213 220 227 231 239 245 250 250 241 253 256 250 249 245 225 230 238 240 234 236 237 232 232 227 220 219 220 217 220 223 225 228 232 238 242 244 256 258 257 252 256 261 265 267 275 280 283 287 289 288 290 294 298 301 302 304 310 313 315 311 307 308 306 305 304 304 308 310
127 132 141 146 157 168 159 162 155 155 170 173 193 187 195 198 208 213 223 226 235 237 241 249 255 246 250 260 262 265 270 263 242 237 240 246 240 239 233 227 225 218 215 218 223 216 221 233 237 238 238 242 241 246 249 254 255 260 262 264 268 268 273 275 281 284 289 290 291 298 300 300 301 304 310 310 308 307 305 306 305 306 309 310 311
121 124 130 139 142 142 148 152 156 169 175 168 165 178 182 194 213 220 224 233 227 236 238 247 250 257 257 263 260 258 247 247 244 237 231 241 244 242 237 228 225 218 214 210 215 213 220 231 238 242 242 247 245 244 248 255 258 254 256 261 267 265 263 265 272 278 289 292 293 294 299 298 298 302 306 309 309 308 308 308 309 311 312 311 311
125 132 137 141 144 147 155 153 154 156 150 150 185 202 197 202 217 217 217 223 229 231 240 241 245 246 249 241 228 223 228 232 238 237 240 237 242 241 240 238 227 222 225 231 222 216 218 228 239 248 254 250 244 242 242 243 242 248 246 251 252 261 261 266 270 281 286 288 288 289 295 299 297 298 304 306 305 305 302 303 305 310 310 309 311
139 139 147 145 149 154 154 156 160 164 171 188 193 197 201 202 207 214 221 225 228 232 236 238 237 237 242 242 238 232 230 223 230 231 234 236 239 242 236 232 230 226 225 227 223 219 224 227 234 242 249 250 249 248 251 247 246 245 246 244 250 255 261 266 273 276 275 278 286 290 293 291 292 292 300 302 302 300 295 297 298 300 301 305 307
123 138 139 149 154 154 155 149 162 178 182 198 199 205 213 212 209 214 219 224 231 234 237 240 241 242 237 236 231 233 226 227 228 232 233 236 240 242 244 239 238 239 239 236 231 236 234 233 236 241 248 254 256 256 255 253 254 254 251 248 245 252 254 262 265 270 280 286 284 283 283 287 291 291 299 303 300 299 298 299 301 305 306 308 308
139 139 148 149 149 152 158 164 176 177 194 201 209 215 221 224 222 217 224 220 222 228 236 240 241 242 239 240 232 227 228 233 234 233 240 239 239 236 241 240 241 239 241 241 239 233 231 233 231 233 239 246 250 255 254 252 251 250 254 255 255 252 257 259 267 275 274 273 273 275 278 280 279 284 294 296 294 294 299 301 304 303 305 307 310
137 143 141 150 158 159 163 171 176 188 201 212 211 216 222 225 229 228 225 226 225 223 222 227 233 234 235 235 230 233 228 230 235 240 236 239 238 237 235 235 237 237 241 246 242 236 234 236 235 237 238 244 244 246 251 253 256 254 256 254 259 262 264 266 267 266 272 273 272 269 269 270 276 288 288 287 286 289 290 292 296 300 304 304 307
125 126 131 137 147 176 180 191 197 208 212 218 221 230 226 224 230 233 233 231 235 230 233 230 232 232 232 232 226 226 224 228 231 231 231 232 234 232 230 230 231 232 236 245 246 245 241 241 237 238 238 240 242 244 246 250 253 256 255 257 262 265 267 271 272 270 269 265 266 272 278 282 280 276 277 277 279 287 291 291 299 304 303 306 311
136 151 147 166 182 198 195 201 204 212 210 218 219 225 228 228 230 230 230 228 234 240 236 232 232 229 229 227 227 227 229 235 234 239 243 244 238 236 237 237 238 237 239 241 250 249 248 244 243 238 234 232 235 238 241 243 251 252 258 261 265 269 271 271 269 272 272 273 274 275 275 276 276 277 278 279 285 285 283 292 299 302 306 307 312